OK1UOJ Weather Reports


Display with metric or nautical units.
time (UTC)temp
F
wind
direction
speed
MPH
gust
MPH
rain 1hr
in
rain 24hr
in
rain mn
in
humidity
%
barometer
mb
20260507011710 54 138 3.0 5.0 0.00 0.00 0.00 10 1009.7
20260507010800 54 145 2.0 3.0 0.00 0.00 0.00 10 1009.8
20260507010755 54 145 2.0 3.0 0.00 0.00 0.00 10 1009.8
20260507010323 54 224 2.0 2.0 0.00 0.00 0.00 10 1009.9
20260507010318 54 224 2.0 2.0 0.00 0.00 0.00 10 1009.9
20260507005841 54 222 1.0 2.0 0.00 0.00 0.00 10 1009.9
20260507005414 54 216 1.0 2.0 0.00 0.00 0.00 10 1009.7
20260507005408 54 216 1.0 2.0 0.00 0.00 0.00 10 1009.7
20260507005403 54 216 1.0 2.0 0.00 0.00 0.00 10 1009.7
20260507004453 54 203 1.0 2.0 0.00 0.00 0.00 10 1009.5
20260507004015 54 93 1.0 3.0 0.00 0.00 0.00 10 1009.4
20260507004011 54 93 1.0 3.0 0.00 0.00 0.00 10 1009.4
20260507003538 54 219 0.0 2.0 0.00 0.00 0.00 10 1009.3
20260507003533 54 219 0.0 2.0 0.00 0.00 0.00 10 1009.3
20260507003116 54 115 0.0 2.0 0.00 0.00 0.00 10 1009.3
20260507003101 54 115 0.0 2.0 0.00 0.00 0.00 10 1009.3
20260507003056 54 115 0.0 2.0 0.00 0.00 0.00 10 1009.3
20260507001708 54 296 1.0 3.0 0.00 0.00 0.00 10 1009.4
20260507001704 54 296 1.0 3.0 0.00 0.00 0.00 10 1009.4
20260507001231 54 276 1.0 2.0 0.00 0.00 0.00 10 1009.3
20260507001226 54 276 1.0 2.0 0.00 0.00 0.00 10 1009.3
20260507000753 54 287 1.0 3.0 0.00 0.00 0.00 10 1009.2
20260507000749 54 287 1.0 3.0 0.00 0.00 0.00 10 1009.2
20260506235839 55 299 1.0 2.0 0.00 0.00 0.00 10 1009.2
20260506235834 55 299 1.0 2.0 0.00 0.00 0.00 10 1009.2
20260506235356 55 321 2.0 5.0 0.00 0.00 0.00 10 1009.1
20260506235005 54 308 2.0 3.0 0.00 0.00 0.00 10 1009.1
20260506234924 54 308 2.0 3.0 0.00 0.00 0.00 10 1009.1
20260506234919 54 308 2.0 3.0 0.00 0.00 0.00 10 1009.1
20260506234447 54 12 1.0 4.0 0.00 0.00 0.00 10 1008.8
20260506234441 54 12 1.0 4.0 0.00 0.00 0.00 10 1008.8
20260506234009 54 317 2.0 3.0 0.00 0.00 0.00 10 1008.7
20260506234004 54 317 2.0 3.0 0.00 0.00 0.00 10 1008.7
20260506233531 54 348 1.0 2.0 0.00 0.00 0.00 10 1008.7
20260506233527 54 348 1.0 2.0 0.00 0.00 0.00 10 1008.7
20260506233054 54 53 1.0 1.0 0.00 0.00 0.00 10 1008.7
20260506233049 54 53 1.0 1.0 0.00 0.00 0.00 10 1008.7
20260506232616 54 332 1.0 2.0 0.00 0.00 0.00 10 1008.7
20260506232612 54 332 1.0 2.0 0.00 0.00 0.00 10 1008.7
20260506231702 54 306 1.0 3.0 0.00 0.00 0.00 10 1009.0
20260506231657 54 306 1.0 3.0 0.00 0.00 0.00 10 1009.0
20260506231219 54 328 3.0 4.0 0.00 0.00 0.00 10 1009.0
20260506230742 54 319 2.0 5.0 0.00 0.00 0.00 10 1008.9
20260506230309 54 315 2.0 3.0 0.00 0.00 0.00 10 1009.0
20260506230304 54 315 2.0 3.0 0.00 0.00 0.00 10 1009.0
20260506225832 54 322 2.0 4.0 0.00 0.00 0.00 10 1009.0
20260506225827 54 322 2.0 4.0 0.00 0.00 0.00 10 1009.0
20260506225414 54 316 2.0 5.0 0.00 0.00 0.00 10 1009.1
20260506225354 54 316 2.0 5.0 0.00 0.00 0.00 10 1009.1
20260506225350 54 316 2.0 5.0 0.00 0.00 0.00 10 1009.1
20260506224917 54 318 3.0 5.0 0.00 0.00 0.00 10 1009.1
20260506224912 54 318 3.0 5.0 0.00 0.00 0.00 10 1009.1
20260506224440 53 301 2.0 3.0 0.00 0.00 0.00 10 1009.2
20260506224435 53 301 2.0 3.0 0.00 0.00 0.00 10 1009.2
20260506223957 53 306 2.0 3.0 0.00 0.00 0.00 10 1009.2
20260506223047 53 295 2.0 3.0 0.00 0.00 0.00 10 1009.2
20260506223042 53 295 2.0 3.0 0.00 0.00 0.00 10 1009.2
20260506222610 53 303 2.0 3.0 0.00 0.00 0.00 10 1009.2
20260506222605 53 303 2.0 3.0 0.00 0.00 0.00 10 1009.2
20260506222132 53 311 2.0 2.0 0.00 0.00 0.00 10 1009.1
20260506222128 53 311 2.0 2.0 0.00 0.00 0.00 10 1009.1
20260506221655 53 296 1.0 2.0 0.00 0.00 0.00 10 1009.0
20260506221650 53 296 1.0 2.0 0.00 0.00 0.00 10 1009.0
20260506221218 53 272 1.0 3.0 0.00 0.00 0.00 10 1008.9
20260506221213 53 272 1.0 3.0 0.00 0.00 0.00 10 1008.9
20260506220740 52 237 1.0 2.0 0.00 0.00 0.00 10 1008.7
20260506220735 52 237 1.0 2.0 0.00 0.00 0.00 10 1008.7
20260506215826 52 288 1.0 3.0 0.00 0.00 0.00 10 1008.3
20260506215821 52 288 1.0 3.0 0.00 0.00 0.00 10 1008.3
20260506214911 52 326 3.0 4.0 0.00 0.00 0.00 10 1007.9
20260506214459 52 322 3.0 4.0 0.00 0.00 0.00 10 1007.9
20260506214433 52 322 3.0 4.0 0.00 0.00 0.00 10 1007.9
20260506214429 52 322 3.0 4.0 0.00 0.00 0.00 10 1007.9
20260506213956 52 344 3.0 5.0 0.00 0.00 0.00 10 1007.8
20260506213951 52 344 3.0 5.0 0.00 0.00 0.00 10 1007.8
20260506213519 52 302 2.0 3.0 0.00 0.00 0.00 10 1007.8
20260506213514 52 302 2.0 3.0 0.00 0.00 0.00 10 1007.8
20260506213041 51 331 2.0 3.0 0.00 0.00 0.00 10 1007.7
20260506213037 51 331 2.0 3.0 0.00 0.00 0.00 10 1007.7
20260506211649 50 135 0.0 0.0 0.00 0.00 0.00 10 1007.3
20260506211645 50 135 0.0 0.0 0.00 0.00 0.00 10 1007.3
20260506211213 50 135 0.0 1.0 0.00 0.00 0.00 10 1007.2
20260506211207 50 135 0.0 1.0 0.00 0.00 0.00 10 1007.2
20260506210730 51 135 1.0 1.0 0.00 0.00 0.00 10 1007.1
20260506210257 51 135 1.0 2.0 0.00 0.00 0.00 10 1007.1
20260506210253 51 135 1.0 2.0 0.00 0.00 0.00 10 1007.1
20260506205815 51 135 0.0 2.0 0.00 0.00 0.00 10 1007.0
20260506205338 52 141 0.0 0.0 0.00 0.00 0.00 10 1007.0
20260506204428 52 147 0.0 0.0 0.00 0.00 0.00 10 1007.1
20260506204423 52 147 0.0 0.0 0.00 0.00 0.00 10 1007.1
20260506203513 54 135 0.0 2.0 0.00 0.00 0.00 10 1007.0
20260506203508 54 135 0.0 2.0 0.00 0.00 0.00 10 1007.0
20260506203036 54 135 1.0 2.0 0.00 0.00 0.00 10 1007.0
20260506203031 54 135 1.0 2.0 0.00 0.00 0.00 10 1007.0
20260506201201 56 108 2.0 2.0 0.00 0.00 0.00 10 1006.9
20260506200729 56 83 1.0 2.0 0.00 0.00 0.00 10 1007.0
20260506200724 56 83 1.0 2.0 0.00 0.00 0.00 10 1007.0
20260506200246 56 105 1.0 2.0 0.00 0.00 0.00 10 1007.1
20260506195814 56 132 2.0 4.0 0.00 0.00 0.00 10 1007.2
20260506195809 56 132 2.0 4.0 0.00 0.00 0.00 10 1007.2
20260506195336 56 126 1.0 2.0 0.00 0.00 0.00 10 1007.1
20260506195331 56 126 1.0 2.0 0.00 0.00 0.00 10 1007.1
20260506194855 56 82 2.0 4.0 0.00 0.00 0.00 10 1007.0
20260506194421 56 60 3.0 6.0 0.00 0.00 0.00 10 1006.9
20260506194416 56 60 3.0 6.0 0.00 0.00 0.00 10 1006.9
20260506193944 56 138 2.0 3.0 0.00 0.00 0.00 10 1007.0
20260506193939 56 138 2.0 3.0 0.00 0.00 0.00 10 1007.0
20260506193506 56 136 2.0 4.0 0.00 0.00 0.00 10 1007.0
20260506193502 56 136 2.0 4.0 0.00 0.00 0.00 10 1007.0
20260506193024 56 106 2.0 5.0 0.00 0.00 0.00 10 1007.1
20260506192551 56 23 2.0 4.0 0.00 0.00 0.00 10 1007.1
20260506192547 56 23 2.0 4.0 0.00 0.00 0.00 10 1007.1
20260506192129 56 81 1.0 2.0 0.00 0.00 0.00 10 1007.3
20260506192114 56 81 1.0 2.0 0.00 0.00 0.00 10 1007.3
20260506192109 56 81 1.0 2.0 0.00 0.00 0.00 10 1007.3
20260506191636 56 66 3.0 5.0 0.00 0.00 0.00 10 1007.3
20260506191632 56 66 3.0 5.0 0.00 0.00 0.00 10 1007.3
20260506191159 57 91 2.0 5.0 0.00 0.00 0.00 10 1007.3
20260506191154 57 91 2.0 5.0 0.00 0.00 0.00 10 1007.3
20260506190721 57 83 2.0 5.0 0.00 0.00 0.00 10 1007.4
20260506190717 57 83 2.0 5.0 0.00 0.00 0.00 10 1007.4
20260506185806 56 63 3.0 8.0 0.00 0.00 0.00 10 1007.5
20260506185802 56 63 3.0 8.0 0.00 0.00 0.00 10 1007.5
20260506185324 56 10 3.0 7.0 0.00 0.00 0.00 10 1007.5
20260506184852 56 335 2.0 3.0 0.00 0.00 0.00 10 1007.6
20260506184847 56 335 2.0 3.0 0.00 0.00 0.00 10 1007.6
20260506184414 56 359 3.0 4.0 0.00 0.00 0.00 10 1007.6
20260506184409 56 359 3.0 4.0 0.00 0.00 0.00 10 1007.6
20260506183459 56 327 2.0 3.0 0.00 0.00 0.00 10 1007.6
20260506183454 56 327 2.0 3.0 0.00 0.00 0.00 10 1007.6
20260506182544 56 310 2.0 3.0 0.00 0.00 0.00 10 1007.3
20260506182539 56 310 2.0 3.0 0.00 0.00 0.00 10 1007.3
20260506181630 57 329 2.0 3.0 0.00 0.00 0.00 10 1007.2
20260506181624 57 329 2.0 3.0 0.00 0.00 0.00 10 1007.2
20260506181151 56 344 3.0 4.0 0.00 0.00 0.00 10 1007.3
20260506181147 56 344 3.0 4.0 0.00 0.00 0.00 10 1007.3
20260506180714 57 313 3.0 5.0 0.00 0.00 0.00 10 1007.3
20260506180709 57 313 3.0 5.0 0.00 0.00 0.00 10 1007.3
20260506180236 57 323 5.0 7.0 0.00 0.00 0.00 10 1007.3
20260506180232 57 323 5.0 7.0 0.00 0.00 0.00 10 1007.3
20260506175759 57 323 5.0 6.0 0.00 0.00 0.00 10 1007.3
20260506175322 57 317 4.0 5.0 0.00 0.00 0.00 10 1007.0
20260506175317 57 317 4.0 5.0 0.00 0.00 0.00 10 1007.0
20260506174406 57 330 1.0 2.0 0.00 0.00 0.00 10 1006.7
20260506174401 57 330 1.0 2.0 0.00 0.00 0.00 10 1006.7
20260506173924 57 346 1.0 3.0 0.00 0.00 0.00 10 1006.5
20260506173014 57 334 1.0 2.0 0.00 0.00 0.00 10 1006.6
20260506173009 57 334 1.0 2.0 0.00 0.00 0.00 10 1006.6
20260506172536 57 1 1.0 2.0 0.00 0.00 0.00 10 1006.5
20260506172532 57 1 1.0 2.0 0.00 0.00 0.00 10 1006.5
20260506172054 58 235 0.0 1.0 0.00 0.00 0.00 10 1006.5
20260506171617 58 165 0.0 1.0 0.00 0.00 0.00 10 1006.4
20260506170706 58 72 1.0 2.0 0.00 0.00 0.00 10 1006.4
20260506170702 58 72 1.0 2.0 0.00 0.00 0.00 10 1006.4
20260506170224 58 73 2.0 4.0 0.00 0.00 0.00 10 1006.3
20260506165746 58 84 1.0 3.0 0.00 0.00 0.00 10 1006.3
20260506165309 59 7 2.0 5.0 0.00 0.00 0.00 10 1006.4
20260506164836 59 19 3.0 5.0 0.00 0.00 0.00 10 1006.3
20260506164831 59 19 3.0 5.0 0.00 0.00 0.00 10 1006.3
20260506164358 59 10 2.0 4.0 0.00 0.00 0.00 10 1006.4
20260506164353 59 10 2.0 4.0 0.00 0.00 0.00 10 1006.4
20260506163921 59 350 2.0 3.0 0.00 0.00 0.00 10 1006.5
20260506163916 59 350 2.0 3.0 0.00 0.00 0.00 10 1006.5
20260506163438 60 22 1.0 2.0 0.00 0.00 0.00 10 1006.5
20260506162050 60 359 2.0 5.0 0.00 0.00 0.00 10 1006.7
20260506162045 60 359 2.0 5.0 0.00 0.00 0.00 10 1006.7
20260506161608 60 344 2.0 5.0 0.00 0.00 0.00 10 1006.8
20260506161135 60 327 2.0 5.0 0.00 0.00 0.00 10 1006.9
20260506161130 60 327 2.0 5.0 0.00 0.00 0.00 10 1006.9
20260506160215 61 344 3.0 4.0 0.00 0.00 0.00 10 1007.2
20260506155306 62 318 4.0 5.0 0.00 0.00 0.00 10 1006.8
20260506155300 62 318 4.0 5.0 0.00 0.00 0.00 10 1006.8
20260506154822 63 321 4.0 7.0 0.00 0.00 0.00 10 1006.6
20260506154344 63 308 4.0 5.0 0.00 0.00 0.00 10 1006.4
20260506153911 64 319 4.0 7.0 0.00 0.00 0.00 10 1006.6
20260506153906 64 319 4.0 7.0 0.00 0.00 0.00 10 1006.6
20260506153428 65 334 3.0 6.0 0.00 0.00 0.00 10 1006.5
20260506152955 65 329 2.0 5.0 0.00 0.00 0.00 10 1006.6
20260506152950 65 329 2.0 5.0 0.00 0.00 0.00 10 1006.6
20260506152517 66 339 1.0 2.0 0.00 0.00 0.00 10 1006.6
20260506152513 66 339 1.0 2.0 0.00 0.00 0.00 10 1006.6
20260506151601 66 212 1.0 2.0 0.00 0.00 0.00 10 1006.7
20260506151124 66 180 2.0 3.0 0.00 0.00 0.00 10 1006.7
20260506151119 66 180 2.0 3.0 0.00 0.00 0.00 10 1006.7
20260506150203 66 320 2.0 3.0 0.00 0.00 0.00 10 1006.6
20260506145730 67 344 2.0 3.0 0.00 0.00 0.00 10 1006.6
20260506145725 67 344 2.0 3.0 0.00 0.00 0.00 10 1006.6
20260506144814 67 315 1.0 3.0 0.00 0.00 0.00 10 0.1
20260506144809 67 315 1.0 3.0 0.00 0.00 0.00 10 1006.8
20260506144331 67 309 2.0 4.0 0.00 0.00 0.00 10 1006.9
20260506142942 71 293 1.0 5.0 0.00 0.00 0.00 92 1007.1
20260506142459 71 167 1.0 2.0 0.00 0.00 0.00 83 1007.1
20260506142021 71 183 2.0 3.0 0.00 0.00 0.00 84 1007.1
20260506141543 71 178 3.0 4.0 0.00 0.00 0.00 86 1007.1
20260506141104 71 162 3.0 5.0 0.00 0.00 0.00 91 1007.2
20260506140630 71 182 3.0 4.0 0.00 0.00 0.00 87 1007.2
20260506140626 71 182 3.0 4.0 0.00 0.00 0.00 87 1007.2
20260506140148 71 176 4.0 7.0 0.00 0.00 0.00 83 1007.1
20260506135714 71 167 4.0 9.0 0.00 0.00 0.00 77 1007.1
20260506135709 71 167 4.0 9.0 0.00 0.00 0.00 77 1007.1
20260506135231 71 159 5.0 9.0 0.00 0.00 0.00 70 1007.2
20260506134753 71 153 6.0 10.0 0.00 0.00 0.00 75 1007.3
20260506134315 71 156 7.0 10.0 0.00 0.00 0.00 73 1007.3
20260506132003 71 109 2.0 5.0 0.00 0.00 0.00 76 1007.5
20260506125656 72 131 3.0 4.0 0.00 0.00 0.00 76 1008.0
20260506125651 72 131 3.0 4.0 0.00 0.00 0.00 76 1008.0
20260506125218 0 117 2.0 3.0 0.00 0.00 0.00 1.0
20260506125213 72 117 2.0 3.0 0.00 0.00 0.00 87 1008.1
20260506124256 73 166 2.0 3.0 0.00 0.00 0.00 61 1008.2
20260506123339 74 189 3.0 4.0 0.00 0.00 0.00 59 1008.3
20260506122421 74 209 2.0 3.0 0.00 0.00 0.00 54 1008.3
20260506121948 73 217 3.0 4.0 0.00 0.00 0.00 67 1008.4
20260506121942 73 217 3.0 4.0 0.00 0.00 0.00 67 1008.4
20260506121514 72 187 4.0 6.0 0.00 0.00 0.00 68 1008.4
20260506121509 72 187 4.0 6.0 0.00 0.00 0.00 68 1008.4
20260506121504 72 187 4.0 6.0 0.00 0.00 0.00 68 1008.4
20260506121030 72 169 3.0 5.0 0.00 0.00 0.00 71 1008.4
20260506121025 72 169 3.0 5.0 0.00 0.00 0.00 71 1008.4
20260506115629 73 145 5.0 7.0 0.00 0.00 0.00 58 1008.5
20260506114713 75 216 3.0 4.0 0.00 0.00 0.00 54 1008.5
20260506113759 76 296 2.0 3.0 0.00 0.00 0.00 57 1008.6
20260506113754 76 296 2.0 3.0 0.00 0.00 0.00 57 1008.6
20260506113315 77 228 2.0 5.0 0.00 0.00 0.00 61 1008.6
20260506111439 75 287 2.0 3.0 0.00 0.00 0.00 62 1008.8
20260506111005 75 341 2.0 3.0 0.00 0.00 0.00 71 1008.9
20260506111000 75 341 2.0 3.0 0.00 0.00 0.00 71 1008.9
20260506110521 75 267 1.0 2.0 0.00 0.00 0.00 67 1008.9
20260506110042 76 338 2.0 3.0 0.00 0.00 0.00 59 1008.9
20260506105608 77 339 2.0 3.0 0.00 0.00 0.00 58 1009.0
20260506105603 77 339 2.0 3.0 0.00 0.00 0.00 58 1009.0
20260506105124 76 211 2.0 4.0 0.00 0.00 0.00 63 1009.0
20260506104211 75 329 1.0 2.0 0.00 0.00 0.00 72 10.0
20260506104206 75 329 1.0 2.0 0.00 0.00 0.00 72 1009.1
20260506103253 75 316 2.0 3.0 0.00 0.00 0.00 73 1009.1
20260506103248 75 316 2.0 3.0 0.00 0.00 0.00 73 1009.1
20260506102814 75 291 1.0 3.0 0.00 0.00 0.00 71 1009.4
20260506102809 75 291 1.0 3.0 0.00 0.00 0.00 71 1009.4
20260506102330 75 255 2.0 4.0 0.00 0.00 0.00 83 1009.5
20260506101851 75 241 2.0 4.0 0.00 0.00 0.00 66 1009.4
20260506100454 75 178 2.0 5.0 0.00 0.00 0.00 80 1009.6
20260506100020 74 197 2.0 5.0 0.00 0.00 0.00 80 1009.6
20260506100015 74 197 2.0 5.0 0.00 0.00 0.00 80 1009.6
20260506095541 74 211 2.0 3.0 0.00 0.00 0.00 85 1009.5
20260506095536 74 211 2.0 3.0 0.00 0.00 0.00 85 1009.5
20260506095103 73 205 2.0 4.0 0.00 0.00 0.00 84 1009.5
20260506095057 73 205 2.0 4.0 0.00 0.00 0.00 84 1009.5
20260506094144 73 228 3.0 4.0 0.00 0.00 0.00 84 1009.6
20260506093222 74 188 1.0 2.0 0.00 0.00 0.00 84 1009.5
20260506092309 72 279 3.0 6.0 0.00 0.00 0.00 10 1009.5
20260506092306 72 279 3.0 6.0 0.00 0.00 0.00 10 1009.5
20260506091826 71 237 2.0 5.0 0.00 0.00 0.00 94 1009.5
20260506091352 70 236 1.0 2.0 0.00 0.00 0.00 10 1009.6
20260506091347 70 236 1.0 2.0 0.00 0.00 0.00 10 1009.6
20260506090908 70 225 4.0 5.0 0.00 0.00 0.00 97 1009.6
20260506090430 69 228 3.0 5.0 0.00 0.00 0.00 10 1009.6
20260506085957 68 215 3.0 5.0 0.00 0.00 0.00 10 1009.6
20260506085951 68 215 3.0 5.0 0.00 0.00 0.00 10 1009.6
20260506085040 68 276 2.0 3.0 0.00 0.00 0.00 10 1009.5
20260506085034 68 276 2.0 3.0 0.00 0.00 0.00 10 1009.5
20260506084556 68 284 1.0 2.0 0.00 0.00 0.00 10 1009.5
20260506084123 68 284 2.0 2.0 0.00 0.00 0.00 10 1009.5
20260506084118 68 284 2.0 2.0 0.00 0.00 0.00 10 1009.5
20260506083644 69 276 2.0 3.0 0.00 0.00 0.00 10 1009.5
20260506083639 69 276 2.0 3.0 0.00 0.00 0.00 10 1009.5
20260506083205 68 277 2.0 4.0 0.00 0.00 0.00 10 100.9
20260506083201 68 277 2.0 4.0 0.00 0.00 0.00 10 1009.5
20260506082728 68 224 3.0 5.0 0.00 0.00 0.00 10 1009.4
20260506082722 68 224 3.0 5.0 0.00 0.00 0.00 10 1009.4
20260506080410 69 251 2.0 3.0 0.00 0.00 0.00 10 1009.6
20260506072709 66 278 1.0 3.0 0.00 0.00 0.00 10 1009.7
20260506072704 66 278 1.0 3.0 0.00 0.00 0.00 10 1009.7
20260506072231 64 285 2.0 3.0 0.00 0.00 0.00 10 1009.7
20260506072226 64 285 2.0 3.0 0.00 0.00 0.00 10 1009.7
20260506071315 61 302 2.0 3.0 0.00 0.00 0.00 10 1009.7
20260506071310 61 302 2.0 3.0 0.00 0.00 0.00 10 1009.7
20260506070837 60 332 2.0 5.0 0.00 0.00 0.00 10 1009.8
20260506070832 60 332 2.0 5.0 0.00 0.00 0.00 10 1009.8
20260506070354 61 328 2.0 3.0 0.00 0.00 0.00 10 1009.7
20260506062214 61 234 2.0 4.0 0.00 0.00 0.00 10 1009.5
20260506061259 59 223 3.0 5.0 0.00 0.00 0.00 10 1009.7
20260506051251 55 279 0.0 1.0 0.00 0.00 0.00 10 1009.6
20260506050818 55 280 0.0 0.0 0.00 0.00 0.00 10 1009.5
20260506050813 55 280 0.0 0.0 0.00 0.00 0.00 10 1009.5
20260506050336 55 224 1.0 2.0 0.00 0.00 0.00 10 1009.4
20260506044948 53 145 1.0 2.0 0.00 0.00 0.00 10 1009.5
20260506044944 53 145 1.0 2.0 0.00 0.00 0.00 10 1009.5
20260506044029 53 148 0.0 1.0 0.00 0.00 0.00 10 1009.4
20260506043551 53 135 0.0 0.0 0.00 0.00 0.00 10 1009.3
20260506042637 53 135 0.0 2.0 0.00 0.00 0.00 10 1009.1
20260506042200 52 135 1.0 1.0 0.00 0.00 0.00 10 1009.0
20260506041245 52 135 0.0 0.0 0.00 0.00 0.00 10 1009.0
20260506040330 52 180 0.0 0.0 0.00 0.00 0.00 10 1008.8
20260506035857 52 180 0.0 0.0 0.00 0.00 0.00 10 1008.7
20260506035852 52 180 0.0 0.0 0.00 0.00 0.00 10 1008.7
20260506035420 52 180 0.0 0.0 0.00 0.00 0.00 10 1008.7
20260506035415 52 180 0.0 0.0 0.00 0.00 0.00 10 1008.7
20260506034023 52 225 0.0 0.0 0.00 0.00 0.00 10 1008.7
20260506033546 52 225 0.0 0.0 0.00 0.00 0.00 10 1008.6
20260506033108 53 225 0.0 0.0 0.00 0.00 0.00 10 1008.7
20260506032631 53 213 1.0 2.0 0.00 0.00 0.00 10 1008.7
20260506032154 53 225 2.0 2.0 0.00 0.00 0.00 10 1008.7
20260506031716 53 225 2.0 2.0 0.00 0.00 0.00 10 1008.7
20260506031244 53 225 2.0 2.0 0.00 0.00 0.00 10 1008.8
20260506031239 53 225 2.0 2.0 0.00 0.00 0.00 10 1008.8
20260506025852 53 225 2.0 3.0 0.00 0.00 0.00 10 1008.6
20260506025414 53 225 2.0 3.0 0.00 0.00 0.00 10 1008.6
20260506025410 53 225 2.0 3.0 0.00 0.00 0.00 10 1008.6
20260506024937 53 228 2.0 3.0 0.00 0.00 0.00 10 1008.6
20260506024933 53 228 2.0 3.0 0.00 0.00 0.00 10 1008.6
20260506024455 53 225 1.0 3.0 0.00 0.00 0.00 10 1008.6
20260506024022 53 225 1.0 2.0 0.00 0.00 0.00 10 1008.4
20260506024017 53 225 1.0 2.0 0.00 0.00 0.00 10 1008.4
20260506023540 53 225 2.0 2.0 0.00 0.00 0.00 10 1008.3
20260506022630 53 225 2.0 2.0 0.00 0.00 0.00 10 1008.3
20260506022625 53 225 2.0 2.0 0.00 0.00 0.00 10 1008.3
20260506022148 53 225 2.0 2.0 0.00 0.00 0.00 10 1008.2
20260506021715 53 221 1.0 2.0 0.00 0.00 0.00 10 1008.1
20260506021711 53 221 1.0 2.0 0.00 0.00 0.00 10 1008.1
20260506021233 54 180 1.0 2.0 0.00 0.00 0.00 10 1008.0
20260506020756 54 203 1.0 2.0 0.00 0.00 0.00 10 1008.2
20260506020323 54 190 2.0 2.0 0.00 0.00 0.00 10 1008.3
20260506020319 54 190 2.0 2.0 0.00 0.00 0.00 10 1008.3
20260506015841 54 212 2.0 3.0 0.00 0.00 0.00 10 1008.2
20260506015404 55 222 2.0 2.0 0.00 0.00 0.00 10 1008.2
20260506014454 55 225 2.0 2.0 0.00 0.00 0.00 10 1008.3
20260506014449 55 225 2.0 2.0 0.00 0.00 0.00 10 1008.3
20260506014017 55 225 2.0 3.0 0.00 0.00 0.00 10 1008.4
20260506014011 55 225 2.0 3.0 0.00 0.00 0.00 10 1008.4
20260506013534 56 242 1.0 2.0 0.00 0.00 0.00 10 1008.2
20260506013057 56 328 3.0 6.0 0.00 0.00 0.00 10 1007.8